Time,TemperatureF,DewpointF,PressureIn,WindDirection,WindDirectionDegrees,WindSpeedMPH,WindSpeedGustMPH,Humidity,HourlyPrecipIn,Conditions,Clouds,dailyrainin,SoftwareType,DateUTC
2013-04-01 00:02:00,32.5,19.0,30.16,NNW,339,5.0,15.0,57,0.00,,---,0.00,VWS V14.01,2013-04-01 05:02:00,
2013-04-01 00:08:00,32.3,18.8,30.15,NW,314,5.0,15.0,57,0.00,,---,0.00,VWS V14.01,2013-04-01 05:08:00,
2013-04-01 00:13:00,32.2,18.7,30.16,WNW,295,3.0,15.0,57,0.00,,---,0.00,VWS V14.01,2013-04-01 05:13:00,
2013-04-01 00:18:00,32.1,19.4,30.16,West,278,1.0,15.0,59,0.00,,---,0.00,VWS V14.01,2013-04-01 05:18:00,
2013-04-01 00:28:00,31.7,20.6,30.16,WNW,298,5.0,15.0,63,0.00,,---,0.00,VWS V14.01,2013-04-01 05:28:00,
2013-04-01 00:30:00,31.7,20.6,30.16,WNW,290,1.0,15.0,63,0.00,,---,0.00,VWS V14.01,2013-04-01 05:30:00,
2013-04-01 00:33:00,31.5,20.7,30.16,NW,316,5.0,9.0,64,0.00,,---,0.00,VWS V14.01,2013-04-01 05:33:00,
2013-04-01 00:38:00,31.1,20.7,30.16,WNW,285,3.0,12.0,65,0.00,,---,0.00,VWS V14.01,2013-04-01 05:38:00,
2013-04-01 00:43:00,30.7,20.7,30.17,WNW,298,7.0,12.0,66,0.00,,---,0.00,VWS V14.01,2013-04-01 05:43:00,
2013-04-01 00:48:00,30.4,20.8,30.17,North,5,3.0,12.0,67,0.00,,---,0.00,VWS V14.01,2013-04-01 05:48:00,
2013-04-01 00:53:00,30.1,20.8,30.17,NW,323,3.0,12.0,68,0.00,,---,0.00,VWS V14.01,2013-04-01 05:53:00,
2013-04-01 00:58:00,29.8,20.5,30.17,NW,307,6.0,13.0,68,0.00,,---,0.00,VWS V14.01,2013-04-01 05:58:00,
2013-04-01 01:00:00,29.8,20.5,30.17,WNW,291,3.0,13.0,68,0.00,,---,0.00,VWS V14.01,2013-04-01 06:00:00,
2013-04-01 01:03:00,29.5,20.6,30.17,NW,305,3.0,10.0,69,0.00,,---,0.00,VWS V14.01,2013-04-01 06:03:00,
2013-04-01 01:08:00,29.3,20.7,30.17,NW,319,5.0,16.0,70,0.00,,---,0.00,VWS V14.01,2013-04-01 06:08:00,
2013-04-01 01:18:00,29.0,20.8,30.17,ENE,58,4.0,17.0,71,0.00,,---,0.00,VWS V14.01,2013-04-01 06:18:00,
2013-04-01 01:23:00,28.9,20.7,30.18,ENE,65,2.0,17.0,71,0.00,,---,0.00,VWS V14.01,2013-04-01 06:23:00,
2013-04-01 01:28:00,28.6,20.4,30.18,WNW,299,4.0,17.0,71,0.00,,---,0.00,VWS V14.01,2013-04-01 06:28:00,
2013-04-01 01:30:00,28.6,20.4,30.18,NW,312,6.0,17.0,71,0.00,,---,0.00,VWS V14.01,2013-04-01 06:30:00,
2013-04-01 01:33:00,28.4,20.2,30.18,WNW,301,3.0,10.0,71,0.00,,---,0.00,VWS V14.01,2013-04-01 06:33:00,
2013-04-01 01:38:00,28.2,20.0,30.19,NW,324,4.0,10.0,71,0.00,,---,0.00,VWS V14.01,2013-04-01 06:38:00,
2013-04-01 01:43:00,28.1,20.2,30.19,WNW,298,3.0,10.0,72,0.00,,---,0.00,VWS V14.01,2013-04-01 06:43:00,
2013-04-01 01:48:00,28.0,20.5,30.19,North,351,5.0,10.0,73,0.00,,---,0.00,VWS V14.01,2013-04-01 06:48:00,
2013-04-01 01:54:00,28.0,20.8,30.19,WNW,290,4.0,10.0,74,0.00,,---,0.00,VWS V14.01,2013-04-01 06:54:00,
2013-04-01 01:59:00,27.9,20.7,30.19,WNW,293,1.0,11.0,74,0.00,,---,0.00,VWS V14.01,2013-04-01 06:59:00,
2013-04-01 02:00:00,27.9,20.7,30.19,NW,305,2.0,11.0,74,0.00,,---,0.00,VWS V14.01,2013-04-01 07:00:00,
2013-04-01 02:04:00,27.7,20.5,30.19,NW,308,9.0,14.0,74,0.00,,---,0.00,VWS V14.01,2013-04-01 07:04:00,
2013-04-01 02:09:00,27.5,19.7,30.20,NNW,335,11.0,14.0,72,0.00,,---,0.00,VWS V14.01,2013-04-01 07:09:00,
2013-04-01 02:14:00,27.3,18.5,30.20,North,5,6.0,15.0,69,0.00,,---,0.00,VWS V14.01,2013-04-01 07:14:00,
2013-04-01 02:19:00,27.1,18.3,30.20,NNE,16,9.0,15.0,69,0.00,,---,0.00,VWS V14.01,2013-04-01 07:19:00,
2013-04-01 02:24:00,26.9,18.4,30.20,North,359,6.0,15.0,70,0.00,,---,0.00,VWS V14.01,2013-04-01 07:24:00,
2013-04-01 02:29:00,26.8,18.3,30.20,WNW,291,5.0,5.0,70,0.00,,---,0.00,VWS V14.01,2013-04-01 07:29:00,
2013-04-01 02:30:00,26.8,18.3,30.20,WNW,288,2.0,15.0,70,0.00,,---,0.00,VWS V14.01,2013-04-01 07:30:00,
2013-04-01 02:34:00,26.7,18.6,30.20,NW,323,8.0,8.0,71,0.00,,---,0.00,VWS V14.01,2013-04-01 07:34:00,
2013-04-01 02:39:00,26.6,18.8,30.20,NW,321,7.0,9.0,72,0.00,,---,0.00,VWS V14.01,2013-04-01 07:39:00,
2013-04-01 02:44:00,26.6,19.1,30.20,West,269,3.0,9.0,73,0.00,,---,0.00,VWS V14.01,2013-04-01 07:44:00,
2013-04-01 02:49:00,26.5,19.4,30.20,NW,317,2.0,9.0,74,0.00,,---,0.00,VWS V14.01,2013-04-01 07:49:00,
2013-04-01 02:54:00,26.4,19.6,30.20,NW,310,3.0,9.0,75,0.00,,---,0.00,VWS V14.01,2013-04-01 07:54:00,
2013-04-01 02:59:00,26.3,19.5,30.21,NW,319,2.0,2.0,75,0.00,,---,0.00,VWS V14.01,2013-04-01 07:59:00,
2013-04-01 03:00:00,26.3,19.5,30.20,WNW,303,2.0,9.0,75,0.00,,---,0.00,VWS V14.01,2013-04-01 08:00:00,
2013-04-01 03:05:00,26.3,19.8,30.21,North,359,8.0,10.0,76,0.00,,---,0.00,VWS V14.01,2013-04-01 08:05:00,
2013-04-01 03:09:00,26.2,19.7,30.21,North,357,6.0,13.0,76,0.00,,---,0.00,VWS V14.01,2013-04-01 08:09:00,
2013-04-01 03:15:00,26.0,19.5,30.21,NNW,337,5.0,14.0,76,0.00,,---,0.00,VWS V14.01,2013-04-01 08:15:00,
2013-04-01 03:20:00,25.9,19.1,30.21,NW,316,1.0,14.0,75,0.00,,---,0.00,VWS V14.01,2013-04-01 08:20:00,
2013-04-01 03:25:00,25.7,18.6,30.21,NNW,335,1.0,14.0,74,0.00,,---,0.00,VWS V14.01,2013-04-01 08:25:00,
2013-04-01 03:30:00,25.5,18.4,30.21,NNE,27,6.0,8.0,74,0.00,,---,0.00,VWS V14.01,2013-04-01 08:30:00,
2013-04-01 03:35:00,25.4,18.3,30.21,WNW,293,1.0,12.0,74,0.00,,---,0.00,VWS V14.01,2013-04-01 08:35:00,
2013-04-01 03:40:00,25.3,18.5,30.22,NNE,15,3.0,12.0,75,0.00,,---,0.00,VWS V14.01,2013-04-01 08:40:00,
2013-04-01 03:45:00,25.2,18.4,30.21,NNW,347,3.0,12.0,75,0.00,,---,0.00,VWS V14.01,2013-04-01 08:45:00,
2013-04-01 03:50:00,25.1,18.3,30.22,NNW,339,8.0,13.0,75,0.00,,---,0.00,VWS V14.01,2013-04-01 08:50:00,
2013-04-01 03:55:00,25.1,18.3,30.22,North,1,6.0,13.0,75,0.00,,---,0.00,VWS V14.01,2013-04-01 08:55:00,
2013-04-01 04:00:00,25.0,18.2,30.22,WNW,302,8.0,8.0,75,0.00,,---,0.00,VWS V14.01,2013-04-01 09:00:00,
2013-04-01 04:05:00,24.9,18.4,30.22,WNW,291,2.0,11.0,76,0.00,,---,0.00,VWS V14.01,2013-04-01 09:05:00,
2013-04-01 04:10:00,24.8,18.3,30.23,NW,326,2.0,11.0,76,0.00,,---,0.00,VWS V14.01,2013-04-01 09:10:00,
2013-04-01 04:15:00,24.7,18.5,30.23,NNW,329,3.0,11.0,77,0.00,,---,0.00,VWS V14.01,2013-04-01 09:15:00,
2013-04-01 04:20:00,24.6,18.4,30.23,West,281,0.0,11.0,77,0.00,,---,0.00,VWS V14.01,2013-04-01 09:20:00,
2013-04-01 04:25:00,24.5,18.6,30.23,NNE,19,8.0,11.0,78,0.00,,---,0.00,VWS V14.01,2013-04-01 09:25:00,
2013-04-01 04:30:00,24.5,18.6,30.23,NNW,335,5.0,11.0,78,0.00,,---,0.00,VWS V14.01,2013-04-01 09:30:00,
2013-04-01 04:31:00,24.4,18.5,30.23,NW,309,2.0,6.0,78,0.00,,---,0.00,VWS V14.01,2013-04-01 09:31:00,
2013-04-01 04:36:00,24.3,18.1,30.24,NNW,335,2.0,8.0,77,0.00,,---,0.00,VWS V14.01,2013-04-01 09:36:00,
2013-04-01 04:41:00,24.2,18.0,30.24,NW,305,1.0,8.0,77,0.00,,---,0.00,VWS V14.01,2013-04-01 09:41:00,
2013-04-01 04:46:00,24.1,17.6,30.24,WNW,300,6.0,8.0,76,0.00,,---,0.00,VWS V14.01,2013-04-01 09:46:00,
2013-04-01 04:51:00,23.9,17.5,30.24,NNW,339,6.0,11.0,76,0.00,,---,0.00,VWS V14.01,2013-04-01 09:51:00,
2013-04-01 04:56:00,23.8,17.4,30.24,WNW,300,1.0,11.0,76,0.00,,---,0.00,VWS V14.01,2013-04-01 09:56:00,
2013-04-01 05:00:00,23.8,17.4,30.24,NW,306,3.0,11.0,76,0.00,,---,0.00,VWS V14.01,2013-04-01 10:00:00,
2013-04-01 05:01:00,23.7,17.3,30.24,West,270,5.0,6.0,76,0.00,,---,0.00,VWS V14.01,2013-04-01 10:01:00,
2013-04-01 05:06:00,23.6,17.2,30.25,WNW,302,2.0,7.0,76,0.00,,---,0.00,VWS V14.01,2013-04-01 10:06:00,
2013-04-01 05:12:00,23.5,17.1,30.25,WNW,288,3.0,9.0,76,0.00,,---,0.00,VWS V14.01,2013-04-01 10:12:00,
2013-04-01 05:17:00,23.4,17.0,30.25,NW,308,7.0,11.0,76,0.00,,---,0.00,VWS V14.01,2013-04-01 10:17:00,
2013-04-01 05:22:00,23.3,16.9,30.25,North,355,4.0,11.0,76,0.00,,---,0.00,VWS V14.01,2013-04-01 10:22:00,
2013-04-01 05:27:00,23.2,16.8,30.25,NNW,339,5.0,11.0,76,0.00,,---,0.00,VWS V14.01,2013-04-01 10:27:00,
2013-04-01 05:30:00,23.2,16.8,30.26,NW,308,6.0,11.0,76,0.00,,---,0.00,VWS V14.01,2013-04-01 10:30:00,
2013-04-01 05:32:00,23.2,16.8,30.26,NNW,339,7.0,7.0,76,0.00,,---,0.00,VWS V14.01,2013-04-01 10:32:00,
2013-04-01 05:37:00,23.1,16.7,30.26,NNW,333,3.0,11.0,76,0.00,,---,0.00,VWS V14.01,2013-04-01 10:37:00,
2013-04-01 05:42:00,23.0,16.3,30.26,WNW,301,7.0,11.0,75,0.00,,---,0.00,VWS V14.01,2013-04-01 10:42:00,
2013-04-01 05:47:00,23.0,16.3,30.26,NW,314,4.0,11.0,75,0.00,,---,0.00,VWS V14.01,2013-04-01 10:47:00,
2013-04-01 05:52:00,22.9,16.2,30.27,NW,307,2.0,11.0,75,0.00,,---,0.00,VWS V14.01,2013-04-01 10:52:00,
2013-04-01 05:58:00,22.9,16.2,30.27,WNW,285,4.0,13.0,75,0.00,,---,0.00,VWS V14.01,2013-04-01 10:58:00,
2013-04-01 06:00:00,22.9,16.2,30.27,NNW,345,3.0,13.0,75,0.00,,---,0.00,VWS V14.01,2013-04-01 11:00:00,
2013-04-01 06:03:00,22.8,16.1,30.27,NW,305,5.0,8.0,75,0.00,,---,0.00,VWS V14.01,2013-04-01 11:03:00,
2013-04-01 06:08:00,22.8,16.1,30.27,NNW,329,7.0,11.0,75,0.00,,---,0.00,VWS V14.01,2013-04-01 11:08:00,
2013-04-01 06:13:00,22.8,15.8,30.27,NW,321,3.0,11.0,74,0.00,,---,0.00,VWS V14.01,2013-04-01 11:13:00,
2013-04-01 06:18:00,22.7,16.0,30.27,NW,321,3.0,11.0,75,0.00,,---,0.00,VWS V14.01,2013-04-01 11:18:00,
2013-04-01 06:23:00,22.6,15.9,30.28,NNW,329,5.0,11.0,75,0.00,,---,0.00,VWS V14.01,2013-04-01 11:23:00,
2013-04-01 06:28:00,22.6,15.9,30.28,NNW,340,9.0,11.0,75,0.00,,---,0.00,VWS V14.01,2013-04-01 11:28:00,
2013-04-01 06:30:00,22.6,15.9,30.28,NNW,340,10.0,11.0,75,0.00,,---,0.00,VWS V14.01,2013-04-01 11:30:00,
2013-04-01 06:33:00,22.6,15.9,30.29,West,273,10.0,12.0,75,0.00,,---,0.00,VWS V14.01,2013-04-01 11:33:00,
2013-04-01 06:38:00,22.5,15.8,30.29,NW,316,3.0,12.0,75,0.00,,---,0.00,VWS V14.01,2013-04-01 11:38:00,
2013-04-01 06:43:00,22.5,15.8,30.29,North,350,5.0,12.0,75,0.00,,---,0.00,VWS V14.01,2013-04-01 11:43:00,
2013-04-01 06:49:00,22.4,16.0,30.30,North,353,2.0,12.0,76,0.00,,---,0.00,VWS V14.01,2013-04-01 11:49:00,
2013-04-01 06:54:00,22.4,16.0,30.30,NNW,344,2.0,12.0,76,0.00,,---,0.00,VWS V14.01,2013-04-01 11:54:00,
2013-04-01 06:59:00,22.3,15.9,30.30,NW,316,2.0,12.0,76,0.00,,---,0.00,VWS V14.01,2013-04-01 11:59:00,
2013-04-01 07:00:00,22.3,15.9,30.30,NNW,334,3.0,12.0,76,0.00,,---,0.00,VWS V14.01,2013-04-01 12:00:00,
2013-04-01 07:04:00,22.3,16.2,30.30,NW,308,3.0,5.0,77,0.00,,---,0.00,VWS V14.01,2013-04-01 12:04:00,
2013-04-01 07:09:00,22.3,16.2,30.30,WNW,295,6.0,6.0,77,0.00,,---,0.00,VWS V14.01,2013-04-01 12:09:00,
2013-04-01 07:14:00,22.2,16.1,30.30,West,281,3.0,7.0,77,0.00,,---,0.00,VWS V14.01,2013-04-01 12:14:00,
2013-04-01 07:19:00,22.3,16.5,30.30,WNW,302,3.0,7.0,78,0.00,,---,0.00,VWS V14.01,2013-04-01 12:19:00,
2013-04-01 07:24:00,22.3,16.5,30.31,NW,306,0.0,7.0,78,0.00,,---,0.00,VWS V14.01,2013-04-01 12:24:00,
2013-04-01 07:29:00,22.4,16.6,30.31,NW,311,3.0,4.0,78,0.00,,---,0.00,VWS V14.01,2013-04-01 12:29:00,
2013-04-01 07:30:00,22.4,16.6,30.31,West,260,2.0,7.0,78,0.00,,---,0.00,VWS V14.01,2013-04-01 12:30:00,
2013-04-01 07:34:00,22.7,16.6,30.31,WNW,285,1.0,5.0,77,0.00,,---,0.00,VWS V14.01,2013-04-01 12:34:00,
2013-04-01 07:39:00,23.2,16.8,30.31,WSW,245,1.0,6.0,76,0.00,,---,0.00,VWS V14.01,2013-04-01 12:39:00,
2013-04-01 07:45:00,23.5,16.8,30.31,West,270,2.0,8.0,75,0.00,,---,0.00,VWS V14.01,2013-04-01 12:45:00,
2013-04-01 07:50:00,23.7,16.3,30.32,West,271,4.0,8.0,73,0.00,,---,0.00,VWS V14.01,2013-04-01 12:50:00,
2013-04-01 07:55:00,23.8,16.4,30.32,NW,308,5.0,13.0,73,0.00,,---,0.00,VWS V14.01,2013-04-01 12:55:00,
2013-04-01 08:00:00,23.9,16.2,30.32,NNW,330,2.0,5.0,72,0.00,,---,0.00,VWS V14.01,2013-04-01 13:00:00,
2013-04-01 08:05:00,24.0,16.3,30.32,NW,313,2.0,12.0,72,0.00,,---,0.00,VWS V14.01,2013-04-01 13:05:00,
2013-04-01 08:10:00,24.1,15.8,30.32,NNW,337,8.0,15.0,70,0.00,,---,0.00,VWS V14.01,2013-04-01 13:10:00,
2013-04-01 08:15:00,24.2,15.5,30.32,WNW,290,10.0,15.0,69,0.00,,---,0.00,VWS V14.01,2013-04-01 13:15:00,
2013-04-01 08:20:00,24.4,15.7,30.32,NNW,333,9.0,15.0,69,0.00,,---,0.00,VWS V14.01,2013-04-01 13:20:00,
2013-04-01 08:25:00,24.4,15.4,30.32,West,277,3.0,15.0,68,0.00,,---,0.00,VWS V14.01,2013-04-01 13:25:00,
2013-04-01 08:30:00,24.5,15.8,30.33,NE,51,4.0,5.0,69,0.00,,---,0.00,VWS V14.01,2013-04-01 13:30:00,
2013-04-01 08:35:00,24.8,16.1,30.33,NE,56,4.0,10.0,69,0.00,,---,0.00,VWS V14.01,2013-04-01 13:35:00,
2013-04-01 08:40:00,25.0,16.3,30.33,NW,314,2.0,10.0,69,0.00,,---,0.00,VWS V14.01,2013-04-01 13:40:00,
2013-04-01 08:45:00,25.0,15.9,30.33,NNW,330,4.0,13.0,68,0.00,,---,0.00,VWS V14.01,2013-04-01 13:45:00,
2013-04-01 08:50:00,25.1,16.0,30.33,West,264,4.0,13.0,68,0.00,,---,0.00,VWS V14.01,2013-04-01 13:50:00,
2013-04-01 08:55:00,25.4,16.0,30.34,NNW,331,5.0,13.0,67,0.00,,---,0.00,VWS V14.01,2013-04-01 13:55:00,
2013-04-01 09:00:00,25.6,15.5,30.34,West,271,1.0,7.0,65,0.00,,---,0.00,VWS V14.01,2013-04-01 14:00:00,
2013-04-01 09:05:00,25.7,15.9,30.34,NW,308,2.0,8.0,66,0.00,,---,0.00,VWS V14.01,2013-04-01 14:05:00,
2013-04-01 09:10:00,25.9,16.1,30.34,NW,315,5.0,10.0,66,0.00,,---,0.00,VWS V14.01,2013-04-01 14:10:00,
2013-04-01 09:15:00,26.2,16.8,30.34,NNW,331,7.0,10.0,67,0.00,,---,0.00,VWS V14.01,2013-04-01 14:15:00,
2013-04-01 09:37:00,26.3,16.9,30.34,West,270,9.0,10.0,67,0.00,,---,0.00,VWS V14.01,2013-04-01 14:37:00,
2013-04-01 09:42:00,27.2,16.6,30.35,NW,308,5.0,12.0,64,0.00,,---,0.00,VWS V14.01,2013-04-01 14:42:00,
2013-04-01 09:47:00,27.2,16.3,30.35,WNW,288,2.0,12.0,63,0.00,,---,0.00,VWS V14.01,2013-04-01 14:47:00,
2013-04-01 09:52:00,27.4,16.5,30.35,WNW,291,8.0,12.0,63,0.00,,---,0.00,VWS V14.01,2013-04-01 14:52:00,
2013-04-01 09:57:00,27.3,16.0,30.35,West,281,5.0,12.0,62,0.00,,---,0.00,VWS V14.01,2013-04-01 14:57:00,
2013-04-01 10:00:00,27.4,16.1,30.35,WNW,295,2.0,12.0,62,0.00,,---,0.00,VWS V14.01,2013-04-01 15:00:00,
2013-04-01 10:02:00,27.7,16.4,30.35,NNW,339,10.0,10.0,62,0.00,,---,0.00,VWS V14.01,2013-04-01 15:02:00,
2013-04-01 10:07:00,27.6,15.9,30.35,NW,305,5.0,10.0,61,0.00,,---,0.00,VWS V14.01,2013-04-01 15:07:00,
2013-04-01 10:12:00,27.7,15.6,30.35,NE,36,2.0,11.0,60,0.00,,---,0.00,VWS V14.01,2013-04-01 15:12:00,
2013-04-01 10:18:00,28.0,15.9,30.36,North,350,5.0,13.0,60,0.00,,---,0.00,VWS V14.01,2013-04-01 15:18:00,
2013-04-01 10:23:00,28.5,16.4,30.35,WNW,302,5.0,13.0,60,0.00,,---,0.00,VWS V14.01,2013-04-01 15:23:00,
2013-04-01 10:28:00,28.6,16.1,30.36,NW,305,3.0,13.0,59,0.00,,---,0.00,VWS V14.01,2013-04-01 15:28:00,
2013-04-01 10:30:00,28.6,16.5,30.35,North,354,10.0,13.0,60,0.00,,---,0.00,VWS V14.01,2013-04-01 15:30:00,
2013-04-01 10:33:00,28.7,15.0,30.35,West,281,4.0,12.0,56,0.00,,---,0.00,VWS V14.01,2013-04-01 15:33:00,
2013-04-01 10:38:00,28.7,15.4,30.36,NW,321,4.0,12.0,57,0.00,,---,0.00,VWS V14.01,2013-04-01 15:38:00,
2013-04-01 10:43:00,28.7,15.0,30.36,West,274,4.0,12.0,56,0.00,,---,0.00,VWS V14.01,2013-04-01 15:43:00,
2013-04-01 10:48:00,29.3,16.0,30.36,WNW,288,2.0,12.0,57,0.00,,---,0.00,VWS V14.01,2013-04-01 15:48:00,
2013-04-01 10:53:00,29.6,15.8,30.36,WNW,295,2.0,12.0,56,0.00,,---,0.00,VWS V14.01,2013-04-01 15:53:00,
2013-04-01 10:58:00,29.8,16.4,30.36,WNW,294,7.0,12.0,57,0.00,,---,0.00,VWS V14.01,2013-04-01 15:58:00,
2013-04-01 11:00:00,29.9,16.5,30.36,NW,309,7.0,12.0,57,0.00,,---,0.00,VWS V14.01,2013-04-01 16:00:00,
2013-04-01 11:03:00,30.0,15.8,30.36,WSW,246,3.0,8.0,55,0.00,,---,0.00,VWS V14.01,2013-04-01 16:03:00,
2013-04-01 11:08:00,30.3,16.1,30.36,NW,311,4.0,12.0,55,0.00,,---,0.00,VWS V14.01,2013-04-01 16:08:00,
2013-04-01 11:14:00,30.4,14.9,30.36,WNW,288,8.0,12.0,52,0.00,,---,0.00,VWS V14.01,2013-04-01 16:14:00,
2013-04-01 11:19:00,30.5,15.4,30.36,WNW,297,3.0,12.0,53,0.00,,---,0.00,VWS V14.01,2013-04-01 16:19:00,
2013-04-01 11:24:00,30.6,15.9,30.36,NW,314,5.0,12.0,54,0.00,,---,0.00,VWS V14.01,2013-04-01 16:24:00,
2013-04-01 11:29:00,30.8,15.7,30.36,WNW,302,3.0,12.0,53,0.00,,---,0.00,VWS V14.01,2013-04-01 16:29:00,
2013-04-01 11:30:00,30.8,16.1,30.36,NW,316,3.0,12.0,54,0.00,,---,0.00,VWS V14.01,2013-04-01 16:30:00,
2013-04-01 11:34:00,31.2,16.9,30.36,North,357,6.0,10.0,55,0.00,,---,0.00,VWS V14.01,2013-04-01 16:34:00,
2013-04-01 11:39:00,31.3,17.0,30.36,NW,316,2.0,10.0,55,0.00,,---,0.00,VWS V14.01,2013-04-01 16:39:00,
2013-04-01 11:44:00,31.7,16.5,30.36,NNW,339,5.0,10.0,53,0.00,,---,0.00,VWS V14.01,2013-04-01 16:44:00,
2013-04-01 11:49:00,32.1,16.5,30.36,NNE,15,4.0,12.0,52,0.00,,---,0.00,VWS V14.01,2013-04-01 16:49:00,
2013-04-01 11:54:00,32.5,16.9,30.36,NNE,20,6.0,12.0,52,0.00,,---,0.00,VWS V14.01,2013-04-01 16:54:00,
2013-04-01 11:59:00,32.6,16.5,30.36,NW,324,1.0,12.0,51,0.00,,---,0.00,VWS V14.01,2013-04-01 16:59:00,
2013-04-01 12:00:00,32.5,16.4,30.36,West,278,4.0,12.0,51,0.00,,---,0.00,VWS V14.01,2013-04-01 17:00:00,
2013-04-01 14:38:00,32.6,17.4,30.36,NNW,345,6.0,7.0,53,0.00,,---,0.00,VWS V14.01,2013-04-01 19:38:00,
2013-04-01 14:43:00,37.3,17.4,30.34,North,8,4.0,9.0,44,0.00,,---,0.00,VWS V14.01,2013-04-01 19:43:00,
2013-04-01 14:48:00,37.5,17.6,30.34,NW,317,5.0,11.0,44,0.00,,---,0.00,VWS V14.01,2013-04-01 19:48:00,
2013-04-01 14:53:00,36.9,18.6,30.34,West,273,7.0,13.0,47,0.00,,---,0.00,VWS V14.01,2013-04-01 19:53:00,
2013-04-01 14:58:00,37.2,17.8,30.34,NNE,12,5.0,13.0,45,0.00,,---,0.00,VWS V14.01,2013-04-01 19:58:00,
2013-04-01 15:00:00,37.1,17.7,30.34,WNW,299,2.0,13.0,45,0.00,,---,0.00,VWS V14.01,2013-04-01 20:00:00,
2013-04-01 15:03:00,37.2,18.3,30.34,NW,324,5.0,8.0,46,0.00,,---,0.00,VWS V14.01,2013-04-01 20:03:00,
2013-04-01 15:09:00,37.3,17.9,30.34,NW,308,4.0,13.0,45,0.00,,---,0.00,VWS V14.01,2013-04-01 20:09:00,
2013-04-01 15:14:00,37.7,19.8,30.33,NW,324,11.0,13.0,48,0.00,,---,0.00,VWS V14.01,2013-04-01 20:14:00,
2013-04-01 15:19:00,37.6,17.7,30.34,West,274,11.0,13.0,44,0.00,,---,0.00,VWS V14.01,2013-04-01 20:19:00,
2013-04-01 15:24:00,37.7,18.3,30.33,NW,322,6.0,13.0,45,0.00,,---,0.00,VWS V14.01,2013-04-01 20:24:00,
2013-04-01 15:29:00,37.9,18.0,30.33,West,259,2.0,13.0,44,0.00,,---,0.00,VWS V14.01,2013-04-01 20:29:00,
2013-04-01 15:30:00,37.9,18.5,30.33,NW,308,6.0,13.0,45,0.00,,---,0.00,VWS V14.01,2013-04-01 20:30:00,
2013-04-01 15:34:00,38.3,18.8,30.33,WNW,288,6.0,10.0,45,0.00,,---,0.00,VWS V14.01,2013-04-01 20:34:00,
2013-04-01 15:39:00,38.5,18.5,30.33,NNW,338,5.0,11.0,44,0.00,,---,0.00,VWS V14.01,2013-04-01 20:39:00,
2013-04-01 15:44:00,39.3,18.7,30.33,NNW,335,6.0,12.0,43,0.00,,---,0.00,VWS V14.01,2013-04-01 20:44:00,
2013-04-01 15:49:00,38.5,18.5,30.33,West,264,5.0,12.0,44,0.00,,---,0.00,VWS V14.01,2013-04-01 20:49:00,
2013-04-01 15:54:00,38.3,18.8,30.33,NNE,29,2.0,12.0,45,0.00,,---,0.00,VWS V14.01,2013-04-01 20:54:00,
2013-04-01 15:59:00,38.0,18.0,30.33,NNE,13,10.0,10.0,44,0.00,,---,0.00,VWS V14.01,2013-04-01 20:59:00,
2013-04-01 16:00:00,38.1,18.1,30.33,NNW,338,2.0,15.0,44,0.00,,---,0.00,VWS V14.01,2013-04-01 21:00:00,
2013-04-01 16:05:00,37.9,19.0,30.33,North,1,6.0,13.0,46,0.00,,---,0.00,VWS V14.01,2013-04-01 21:05:00,
2013-04-01 16:10:00,38.4,19.9,30.33,NNW,342,4.0,13.0,47,0.00,,---,0.00,VWS V14.01,2013-04-01 21:10:00,
2013-04-01 16:15:00,37.7,17.8,30.33,WNW,291,4.0,13.0,44,0.00,,---,0.00,VWS V14.01,2013-04-01 21:15:00,
2013-04-01 16:20:00,37.6,18.2,30.33,NNW,346,9.0,13.0,45,0.00,,---,0.00,VWS V14.01,2013-04-01 21:20:00,
2013-04-01 16:25:00,37.5,18.1,30.33,NW,324,3.0,13.0,45,0.00,,---,0.00,VWS V14.01,2013-04-01 21:25:00,
2013-04-01 16:30:00,37.5,19.1,30.33,WNW,294,5.0,5.0,47,0.00,,---,0.00,VWS V14.01,2013-04-01 21:30:00,
2013-04-01 16:35:00,37.6,19.2,30.33,NNE,25,2.0,7.0,47,0.00,,---,0.00,VWS V14.01,2013-04-01 21:35:00,
2013-04-01 16:40:00,38.1,18.6,30.33,North,353,1.0,13.0,45,0.00,,---,0.00,VWS V14.01,2013-04-01 21:40:00,
2013-04-01 16:45:00,37.8,18.4,30.33,NW,305,1.0,14.0,45,0.00,,---,0.00,VWS V14.01,2013-04-01 21:45:00,
2013-04-01 16:50:00,37.9,19.5,30.33,West,280,6.0,14.0,47,0.00,,---,0.00,VWS V14.01,2013-04-01 21:50:00,
2013-04-01 16:55:00,37.6,19.2,30.33,NW,321,4.0,14.0,47,0.00,,---,0.00,VWS V14.01,2013-04-01 21:55:00,
2013-04-01 17:00:00,37.9,19.0,30.33,WNW,288,6.0,11.0,46,0.00,,---,0.00,VWS V14.01,2013-04-01 22:00:00,
2013-04-01 17:05:00,38.1,19.7,30.33,West,272,3.0,11.0,47,0.00,,---,0.00,VWS V14.01,2013-04-01 22:05:00,
2013-04-01 17:10:00,37.8,18.9,30.33,NNW,339,8.0,14.0,46,0.00,,---,0.00,VWS V14.01,2013-04-01 22:10:00,
2013-04-01 17:15:00,37.8,19.9,30.33,NNW,345,4.0,14.0,48,0.00,,---,0.00,VWS V14.01,2013-04-01 22:15:00,
2013-04-01 17:21:00,38.0,19.1,30.33,NW,314,4.0,14.0,46,0.00,,---,0.00,VWS V14.01,2013-04-01 22:21:00,
2013-04-01 17:26:00,38.2,19.8,30.33,NNW,342,4.0,14.0,47,0.00,,---,0.00,VWS V14.01,2013-04-01 22:26:00,
2013-04-01 17:30:00,38.0,19.6,30.33,NNE,26,2.0,14.0,47,0.00,,---,0.00,VWS V14.01,2013-04-01 22:30:00,
2013-04-01 17:31:00,38.2,19.8,30.33,NNE,31,7.0,7.0,47,0.00,,---,0.00,VWS V14.01,2013-04-01 22:31:00,
2013-04-01 17:36:00,37.9,19.0,30.33,North,350,2.0,11.0,46,0.00,,---,0.00,VWS V14.01,2013-04-01 22:36:00,
2013-04-01 17:41:00,37.5,19.1,30.33,NNW,347,7.0,13.0,47,0.00,,---,0.00,VWS V14.01,2013-04-01 22:41:00,
2013-04-01 17:46:00,37.9,19.0,30.33,SW,225,1.0,13.0,46,0.00,,---,0.00,VWS V14.01,2013-04-01 22:46:00,
2013-04-01 17:51:00,38.3,19.4,30.33,NW,313,2.0,13.0,46,0.00,,---,0.00,VWS V14.01,2013-04-01 22:51:00,
2013-04-01 17:57:00,37.6,18.7,30.32,NNE,16,4.0,13.0,46,0.00,,---,0.00,VWS V14.01,2013-04-01 22:57:00,
2013-04-01 18:00:00,37.3,18.4,30.33,NE,47,4.0,13.0,46,0.00,,---,0.00,VWS V14.01,2013-04-01 23:00:00,
2013-04-01 18:02:00,37.2,18.3,30.33,WNW,302,4.0,7.0,46,0.00,,---,0.00,VWS V14.01,2013-04-01 23:02:00,
2013-04-01 18:07:00,37.4,19.0,30.33,WNW,293,2.0,7.0,47,0.00,,---,0.00,VWS V14.01,2013-04-01 23:07:00,
2013-04-01 18:12:00,37.3,18.4,30.33,NNE,22,2.0,10.0,46,0.00,,---,0.00,VWS V14.01,2013-04-01 23:12:00,
2013-04-01 18:17:00,37.4,19.5,30.33,NW,313,2.0,10.0,48,0.00,,---,0.00,VWS V14.01,2013-04-01 23:17:00,
2013-04-01 18:22:00,37.5,19.1,30.33,WNW,295,6.0,10.0,47,0.00,,---,0.00,VWS V14.01,2013-04-01 23:22:00,
2013-04-01 18:27:00,37.3,19.4,30.33,ENE,78,4.0,10.0,48,0.00,,---,0.00,VWS V14.01,2013-04-01 23:27:00,
2013-04-01 18:30:00,37.2,19.3,30.33,North,4,0.0,10.0,48,0.00,,---,0.00,VWS V14.01,2013-04-01 23:30:00,
2013-04-01 18:32:00,37.3,18.9,30.33,NNW,345,1.0,5.0,47,0.00,,---,0.00,VWS V14.01,2013-04-01 23:32:00,
2013-04-01 18:37:00,37.4,19.5,30.33,NE,47,1.0,6.0,48,0.00,,---,0.00,VWS V14.01,2013-04-01 23:37:00,
2013-04-01 18:42:00,37.0,18.7,30.33,NNW,347,1.0,7.0,47,0.00,,---,0.00,VWS V14.01,2013-04-01 23:42:00,
2013-04-01 18:47:00,36.5,18.7,30.33,NW,319,6.0,9.0,48,0.00,,---,0.00,VWS V14.01,2013-04-01 23:47:00,
2013-04-01 18:52:00,36.2,18.9,30.33,NNW,331,2.0,10.0,49,0.00,,---,0.00,VWS V14.01,2013-04-01 23:52:00,
2013-04-01 18:57:00,36.0,19.2,30.33,NW,309,1.0,10.0,50,0.00,,---,0.00,VWS V14.01,2013-04-01 23:57:00,
2013-04-01 19:00:00,35.9,19.1,30.33,WSW,252,1.0,10.0,50,0.00,,---,0.00,VWS V14.01,2013-04-02 00:00:00,
2013-04-01 19:02:00,35.8,19.0,30.33,NNW,331,3.0,8.0,50,0.00,,---,0.00,VWS V14.01,2013-04-02 00:02:00,
2013-04-01 19:08:00,35.6,18.8,30.33,NW,322,5.0,8.0,50,0.00,,---,0.00,VWS V14.01,2013-04-02 00:08:00,
2013-04-01 19:13:00,35.4,18.6,30.33,ENE,65,1.0,8.0,50,0.00,,---,0.00,VWS V14.01,2013-04-02 00:13:00,
2013-04-01 19:18:00,35.0,18.7,30.33,NNW,339,1.0,8.0,51,0.00,,---,0.00,VWS V14.01,2013-04-02 00:18:00,
2013-04-01 19:23:00,34.7,18.9,30.33,NNE,13,0.0,8.0,52,0.00,,---,0.00,VWS V14.01,2013-04-02 00:23:00,
2013-04-01 19:28:00,34.4,18.6,30.33,NW,311,1.0,8.0,52,0.00,,---,0.00,VWS V14.01,2013-04-02 00:28:00,
2013-04-01 19:30:00,34.3,19.0,30.33,North,354,1.0,8.0,53,0.00,,---,0.00,VWS V14.01,2013-04-02 00:30:00,
2013-04-01 19:33:00,34.1,18.8,30.33,NNE,33,3.0,5.0,53,0.00,,---,0.00,VWS V14.01,2013-04-02 00:33:00,
2013-04-01 19:38:00,33.8,18.5,30.33,NNW,347,1.0,6.0,53,0.00,,---,0.00,VWS V14.01,2013-04-02 00:38:00,
2013-04-01 19:43:00,33.6,18.7,30.33,West,281,0.0,6.0,54,0.00,,---,0.00,VWS V14.01,2013-04-02 00:43:00,
2013-04-01 19:48:00,33.3,18.5,30.33,NNW,342,0.0,6.0,54,0.00,,---,0.00,VWS V14.01,2013-04-02 00:48:00,
2013-04-01 19:53:00,33.1,18.7,30.33,NNE,20,2.0,6.0,55,0.00,,---,0.00,VWS V14.01,2013-04-02 00:53:00,
2013-04-01 19:58:00,32.8,18.4,30.33,WNW,302,0.0,6.0,55,0.00,,---,0.00,VWS V14.01,2013-04-02 00:58:00,
2013-04-01 20:00:00,32.8,18.4,30.33,North,9,0.0,6.0,55,0.00,,---,0.00,VWS V14.01,2013-04-02 01:00:00,
2013-04-01 20:03:00,32.7,18.3,30.33,WNW,302,2.0,6.0,55,0.00,,---,0.00,VWS V14.01,2013-04-02 01:03:00,
2013-04-01 20:08:00,32.5,18.1,30.33,NW,312,1.0,6.0,55,0.00,,---,0.00,VWS V14.01,2013-04-02 01:08:00,
2013-04-01 20:13:00,32.4,18.0,30.34,NNW,342,1.0,6.0,55,0.00,,---,0.00,VWS V14.01,2013-04-02 01:13:00,
2013-04-01 20:18:00,32.2,18.3,30.34,NNW,335,0.0,6.0,56,0.00,,---,0.00,VWS V14.01,2013-04-02 01:18:00,
2013-04-01 20:23:00,32.1,18.2,30.34,NE,36,2.0,6.0,56,0.00,,---,0.00,VWS V14.01,2013-04-02 01:23:00,
2013-04-01 20:28:00,31.9,18.4,30.34,North,11,0.0,6.0,57,0.00,,---,0.00,VWS V14.01,2013-04-02 01:28:00,
2013-04-01 20:30:00,31.9,18.4,30.34,North,11,0.0,6.0,57,0.00,,---,0.00,VWS V14.01,2013-04-02 01:30:00,
2013-04-01 20:33:00,31.7,18.2,30.34,NNW,346,0.0,2.0,57,0.00,,---,0.00,VWS V14.01,2013-04-02 01:33:00,
2013-04-01 20:39:00,31.5,18.4,30.34,NW,306,0.0,2.0,58,0.00,,---,0.00,VWS V14.01,2013-04-02 01:39:00,
2013-04-01 20:44:00,31.2,18.5,30.34,WNW,297,0.0,2.0,59,0.00,,---,0.00,VWS V14.01,2013-04-02 01:44:00,
2013-04-01 20:49:00,31.0,18.4,30.34,North,354,0.0,2.0,59,0.00,,---,0.00,VWS V14.01,2013-04-02 01:49:00,
2013-04-01 20:54:00,30.8,18.6,30.35,NW,308,1.0,3.0,60,0.00,,---,0.00,VWS V14.01,2013-04-02 01:54:00,
2013-04-01 20:59:00,30.8,18.6,30.35,NW,323,0.0,3.0,60,0.00,,---,0.00,VWS V14.01,2013-04-02 01:59:00,
2013-04-01 21:00:00,30.7,18.5,30.35,NW,321,0.0,3.0,60,0.00,,---,0.00,VWS V14.01,2013-04-02 02:00:00,
2013-04-01 21:04:00,30.5,18.7,30.35,NW,323,0.0,0.0,61,0.00,,---,0.00,VWS V14.01,2013-04-02 02:04:00,
2013-04-01 21:09:00,30.2,18.4,30.35,NW,323,0.0,0.0,61,0.00,,---,0.00,VWS V14.01,2013-04-02 02:09:00,
2013-04-01 21:14:00,30.0,18.6,30.35,NW,323,0.0,0.0,62,0.00,,---,0.00,VWS V14.01,2013-04-02 02:14:00,
2013-04-01 21:19:00,29.9,18.9,30.35,West,270,0.0,1.0,63,0.00,,---,0.00,VWS V14.01,2013-04-02 02:19:00,
2013-04-01 21:24:00,29.7,18.7,30.35,West,270,0.0,1.0,63,0.00,,---,0.00,VWS V14.01,2013-04-02 02:24:00,
2013-04-01 21:29:00,29.5,18.8,30.36,West,274,0.0,0.0,64,0.00,,---,0.00,VWS V14.01,2013-04-02 02:29:00,
2013-04-01 21:30:00,29.5,18.8,30.36,West,274,0.0,1.0,64,0.00,,---,0.00,VWS V14.01,2013-04-02 02:30:00,
2013-04-01 21:34:00,29.4,18.7,30.36,West,274,0.0,1.0,64,0.00,,---,0.00,VWS V14.01,2013-04-02 02:34:00,
2013-04-01 21:40:00,29.2,18.5,30.36,West,274,0.0,1.0,64,0.00,,---,0.00,VWS V14.01,2013-04-02 02:40:00,
2013-04-01 21:45:00,29.1,18.8,30.36,West,274,0.0,1.0,65,0.00,,---,0.00,VWS V14.01,2013-04-02 02:45:00,
2013-04-01 21:50:00,29.0,18.7,30.36,West,274,0.0,1.0,65,0.00,,---,0.00,VWS V14.01,2013-04-02 02:50:00,
2013-04-01 21:55:00,29.0,19.1,30.37,West,274,0.0,1.0,66,0.00,,---,0.00,VWS V14.01,2013-04-02 02:55:00,
2013-04-01 22:00:00,28.8,18.9,30.37,West,274,0.0,0.0,66,0.00,,---,0.00,VWS V14.01,2013-04-02 03:00:00,
2013-04-01 22:05:00,28.7,19.1,30.37,West,274,0.0,1.0,67,0.00,,---,0.00,VWS V14.01,2013-04-02 03:05:00,
2013-04-01 22:10:00,28.6,19.0,30.37,West,274,0.0,1.0,67,0.00,,---,0.00,VWS V14.01,2013-04-02 03:10:00,
2013-04-01 22:15:00,28.5,19.0,30.37,West,274,0.0,1.0,67,0.00,,---,0.00,VWS V14.01,2013-04-02 03:15:00,
2013-04-01 22:20:00,28.4,19.2,30.37,West,274,0.0,1.0,68,0.00,,---,0.00,VWS V14.01,2013-04-02 03:20:00,
2013-04-01 22:25:00,28.3,19.1,30.37,West,274,0.0,1.0,68,0.00,,---,0.00,VWS V14.01,2013-04-02 03:25:00,
2013-04-01 22:30:00,28.3,19.1,30.37,West,274,0.0,0.0,68,0.00,,---,0.00,VWS V14.01,2013-04-02 03:30:00,
2013-04-01 22:35:00,28.3,19.5,30.37,West,274,0.0,0.0,69,0.00,,---,0.00,VWS V14.01,2013-04-02 03:35:00,
2013-04-01 22:40:00,28.2,19.0,30.37,West,274,0.0,0.0,68,0.00,,---,0.00,VWS V14.01,2013-04-02 03:40:00,
2013-04-01 22:46:00,28.1,18.9,30.37,West,274,0.0,0.0,68,0.00,,---,0.00,VWS V14.01,2013-04-02 03:46:00,
2013-04-01 22:51:00,28.0,18.8,30.37,West,274,0.0,1.0,68,0.00,,---,0.00,VWS V14.01,2013-04-02 03:51:00,
2013-04-01 22:57:00,28.2,19.0,30.37,West,274,0.0,1.0,68,0.00,,---,0.00,VWS V14.01,2013-04-02 03:57:00,
2013-04-01 23:00:00,28.2,19.0,30.37,West,274,0.0,0.0,68,0.00,,---,0.00,VWS V14.01,2013-04-02 04:00:00,
2013-04-01 23:01:00,28.3,19.1,30.37,West,274,0.0,0.0,68,0.00,,---,0.00,VWS V14.01,2013-04-02 04:01:00,
2013-04-01 23:06:00,28.2,18.7,30.37,West,274,0.0,1.0,67,0.00,,---,0.00,VWS V14.01,2013-04-02 04:06:00,
2013-04-01 23:11:00,28.3,18.8,30.37,West,274,0.0,1.0,67,0.00,,---,0.00,VWS V14.01,2013-04-02 04:11:00,
2013-04-01 23:16:00,28.3,18.8,30.37,West,274,0.0,1.0,67,0.00,,---,0.00,VWS V14.01,2013-04-02 04:16:00,
2013-04-01 23:21:00,28.1,18.9,30.37,West,274,0.0,1.0,68,0.00,,---,0.00,VWS V14.01,2013-04-02 04:21:00,
2013-04-01 23:26:00,27.9,18.7,30.37,West,274,0.0,1.0,68,0.00,,---,0.00,VWS V14.01,2013-04-02 04:26:00,
2013-04-01 23:30:00,27.8,18.6,30.37,West,274,0.0,1.0,68,0.00,,---,0.00,VWS V14.01,2013-04-02 04:30:00,
2013-04-01 23:32:00,27.8,18.6,30.37,West,274,0.0,0.0,68,0.00,,---,0.00,VWS V14.01,2013-04-02 04:32:00,
2013-04-01 23:37:00,27.9,18.7,30.37,West,274,0.0,1.0,68,0.00,,---,0.00,VWS V14.01,2013-04-02 04:37:00,
2013-04-01 23:42:00,27.8,18.6,30.38,West,274,0.0,1.0,68,0.00,,---,0.00,VWS V14.01,2013-04-02 04:42:00,
2013-04-01 23:47:00,27.5,18.7,30.38,West,274,0.0,1.0,69,0.00,,---,0.00,VWS V14.01,2013-04-02 04:47:00,
2013-04-01 23:52:00,27.4,18.9,30.38,West,274,0.0,1.0,70,0.00,,---,0.00,VWS V14.01,2013-04-02 04:52:00,
2013-04-01 23:57:00,27.3,18.8,30.38,West,274,0.0,1.0,70,0.00,,---,0.00,VWS V14.01,2013-04-02 04:57:00,